Location: Alladorf
(49.9620°N, 11.3790°E)
Time: 21:28:47
(UTC+00:00)

SL-24 DEB - Pass Details

Date: 29 November 2020
Orbit: 664 x 701 km, 92.0° (Epoch: 24 January)

Event Time Altitude Azimuth Distance (km) Brightness Sun altitude
Rises 05:37:00 0° 185° (S) 3,063 7.8 -11.1°
Reaches altitude 10° 05:39:17 10° 189° (S) 2,154 7.0 -10.8°
Maximum altitude 05:43:58 57° 269° (W) 826 4.4 -10.1°
Drops below altitude 10° 05:48:43 10° 348° (NNW) 2,179 6.5 -9.3°
Sets 05:51:03 0° 353° (N) 3,102 7.3 -9.0°
